Regional Weather Roundup
Issued by NWS Cleveland, OH

Home | Current Version | Previous Version | Graphics & Text | Print | Product List | Glossary On
Versions: 1 2 3 4 5 6 7 8 9 10 11 12 13 14 15 16 17 18 19 20 21 22 23 24 25 26 27 28 29 30 31 32 33 34 35 36 37 38 39 40 41 42 43 44 45 46 47 48 49 50
000
ASUS41 KCLE 221410
RWRCLE
OHIO REGIONAL WEATHER ROUNDUP
NATIONAL WEATHER SERVICE CLEVELAND, OH
1000 AM EDT TUE JUL 22 2014

NOTE: "FAIR" INDICATES FEW OR NO CLOUDS BELOW 12,000 FEET WITH NO
SIGNIFICANT WEATHER AND/OR OBSTRUCTIONS TO VISIBILITY.

OHZ001>008-015>018-024>027-034-035-043-044-221500-
   NORTHWEST OHIO

CITY           SKY/WX    TMP DP  RH WIND       PRES   REMARKS
DEFIANCE       SUNNY     79  65  62 SW3       30.12F
FINDLAY        SUNNY     79  69  71 S6        30.12S
TOLEDO EXPRESS SUNNY     79  64  60 W6        30.11F
TOLEDO EXEC    SUNNY     79  65  62 SW5       30.12F
LIMA           MOSUNNY   80  68  66 S8        30.13S
$$

OHZ009>014-019>023-028>033-038-089-221500-
   NORTHEAST OHIO

CITY           SKY/WX    TMP DP  RH WIND       PRES   REMARKS
CLE-HOPKINS    SUNNY     80  68  66 SW7       30.14F
CLE-LAKEFRONT  SUNNY     81  67  62 S7        30.10F
CUY CO. ARPT   SUNNY     79  70  73 SW8       30.14F
LORAIN-ELYRIA  SUNNY     81  68  64 SW6       30.13F
ASHTABULA      SUNNY     78  70  76 S5        30.14F
AKRON-CANTON   SUNNY     80  67  64 CALM      30.15F
WOOSTER        MOSUNNY   79  70  74 S5        30.16F
MANSFIELD      SUNNY     80  69  69 S8        30.16F
YOUNGSTOWN     SUNNY     78  69  73 VRB3      30.15F
$$

OHZ042-051>053-060>062-070>072-077>081-221500-
  SOUTHWEST OHIO

CITY           SKY/WX    TMP DP  RH WIND       PRES   REMARKS
CINC-COVINGTON MOSUNNY   81  71  71 S6        30.13F
CINC-LUNKEN    SUNNY     78  72  81 CALM      30.12F
HAMILTON       MOSUNNY   80  71  74 CALM      30.14S
DAYTON         MOSUNNY   80  69  69 S5        30.15S
WRIGHT-PAT AFB DRIZZLE   78  70  76 SE2       30.13F
DAYTON GENERAL SUNNY     79  71  76 S5        30.13F
WILMINGTON     MOSUNNY   79  72  79 SE3       30.14F
$$

OHZ036-037-039>041-045>050-054>059-063>069-073>076-082>088-221500-
  CENTRAL AND SOUTHEAST OHIO

CITY           SKY/WX    TMP DP  RH WIND       PRES   REMARKS
COLUMBUS       SUNNY     82  69  64 E3        30.13F
OSU AIRPORT    SUNNY     80  69  69 CALM      30.14F
BOLTON FIELD   SUNNY     79  72  78 CALM      30.14F
RICKENBACK AFB MOSUNNY   80  67  63 CALM      30.13F
NEWARK         SUNNY     79  70  74 CALM      30.13F
MARION         SUNNY     79  69  71 S5        30.14F
LANCASTER      SUNNY     80  71  74 CALM      30.14F
ZANESVILLE     SUNNY     76  70  82 SW3       30.15S
NEW PHILLY     SUNNY     77  71  82 CALM      30.15F
$$



USA.gov is the U.S. government's official web portal to all federal, state and local government web resources and services.